Previsão horária em Cerro Largo

Hoje, 25 Julho, Domingo

Tempo Temperatura Precipitação Vento Pressão Humidade
00:00 +19°C° 0 mm 3 m/s 744 mmHg 62%
01:00 +19°C° 0 mm 3 m/s 744 mmHg 62%
02:00 +19°C° 0 mm 3 m/s 743 mmHg 61%
03:00 +19°C° 0 mm 3 m/s 743 mmHg 59%
04:00 +19°C° 0 mm 3 m/s 743 mmHg 58%
05:00 +19°C° 0 mm 4 m/s 743 mmHg 57%
06:00 +20°C° 0 mm 4 m/s 743 mmHg 55%
07:00 +20°C° 0 mm 4 m/s 743 mmHg 53%
08:00 +21°C° 0 mm 4 m/s 744 mmHg 51%
09:00 +23°C° 0 mm 5 m/s 744 mmHg 46%
10:00 +27°C° 0 mm 5 m/s 744 mmHg 40%
11:00 +29°C° 0 mm 5 m/s 743 mmHg 35%
12:00 +30°C° 0 mm 5 m/s 743 mmHg 35%
13:00 +32°C° 0 mm 5 m/s 742 mmHg 34%
14:00 +32°C° 0 mm 4 m/s 742 mmHg 34%
15:00 +29°C° 0 mm 3 m/s 742 mmHg 39%
16:00 +28°C° 0 mm 3 m/s 742 mmHg 45%
17:00 +26°C° 0 mm 2 m/s 742 mmHg 50%
18:00 +25°C° 0 mm 2 m/s 742 mmHg 50%
19:00 +25°C° 0 mm 2 m/s 742 mmHg 50%
20:00 +24°C° 0 mm 3 m/s 743 mmHg 50%
21:00 +24°C° 0 mm 3 m/s 743 mmHg 50%
22:00 +24°C° 0 mm 3 m/s 743 mmHg 51%
23:00 +23°C° 0 mm 4 m/s 743 mmHg 51%

Amanhã, 26 Julho, Segunda-feira

Tempo Temperatura Precipitação Vento Pressão Humidade
00:00 +22°C° 0.1 mm 4 m/s 742 mmHg 54%
01:00 +22°C° 0.1 mm 4 m/s 742 mmHg 56%
02:00 +21°C° 0.1 mm 4 m/s 741 mmHg 59%
03:00 +21°C° 0.1 mm 4 m/s 741 mmHg 58%
04:00 +21°C° 0.1 mm 4 m/s 741 mmHg 57%
05:00 +21°C° 0.1 mm 4 m/s 741 mmHg 55%
06:00 +21°C° 0.1 mm 3 m/s 741 mmHg 56%
07:00 +21°C° 0.1 mm 3 m/s 742 mmHg 57%
08:00 +22°C° 0.1 mm 3 m/s 742 mmHg 58%
09:00 +24°C° 0 mm 2 m/s 742 mmHg 57%
10:00 +24°C° 0 mm 2 m/s 743 mmHg 55%
11:00 +25°C° 0 mm 1 m/s 743 mmHg 53%
12:00 +25°C° 0.1 mm 1 m/s 742 mmHg 56%
13:00 +24°C° 0.1 mm 1 m/s 742 mmHg 58%
14:00 +24°C° 0.1 mm 1 m/s 741 mmHg 60%
15:00 +23°C° 0.2 mm 1 m/s 742 mmHg 67%
16:00 +22°C° 0.2 mm 1 m/s 742 mmHg 74%
17:00 +20°C° 0.2 mm 2 m/s 742 mmHg 81%
18:00 +20°C° 0.3 mm 1 m/s 743 mmHg 85%
19:00 +19°C° 0.3 mm 1 m/s 743 mmHg 89%
20:00 +18°C° 0.3 mm 1 m/s 744 mmHg 93%
21:00 +18°C° 0.6 mm 1 m/s 744 mmHg 94%
22:00 +17°C° 0.6 mm 2 m/s 744 mmHg 95%
23:00 +17°C° 0.6 mm 3 m/s 745 mmHg 96%

Depois de amanhã, 27 Julho, Terça-feira

Tempo Temperatura Precipitação Vento Pressão Humidade
00:00 +16°C° 0.7 mm 3 m/s 745 mmHg 95%
01:00 +15°C° 0.7 mm 4 m/s 745 mmHg 94%
02:00 +14°C° 0.7 mm 4 m/s 746 mmHg 94%
03:00 +13°C° 0.2 mm 4 m/s 746 mmHg 93%
04:00 +12°C° 0.2 mm 4 m/s 747 mmHg 91%
05:00 +11°C° 0.2 mm 4 m/s 748 mmHg 90%
06:00 +11°C° 0 mm 4 m/s 748 mmHg 88%
07:00 +11°C° 0 mm 4 m/s 749 mmHg 86%
08:00 +10°C° 0 mm 4 m/s 749 mmHg 84%
09:00 +12°C° 0 mm 4 m/s 750 mmHg 70%
10:00 +13°C° 0 mm 4 m/s 750 mmHg 57%
11:00 +14°C° 0 mm 4 m/s 750 mmHg 43%
12:00 +14°C° 0 mm 5 m/s 750 mmHg 41%
13:00 +14°C° 0 mm 5 m/s 749 mmHg 40%
14:00 +14°C° 0 mm 5 m/s 749 mmHg 38%
15:00 +13°C° 0 mm 5 m/s 749 mmHg 41%
16:00 +11°C° 0 mm 4 m/s 749 mmHg 44%
17:00 +10°C° 0 mm 4 m/s 750 mmHg 48%
18:00 +9°C° 0 mm 3 m/s 750 mmHg 50%
19:00 +8°C° 0 mm 3 m/s 751 mmHg 52%
20:00 +7°C° 0 mm 3 m/s 751 mmHg 54%
21:00 +6°C° 0 mm 2 m/s 752 mmHg 56%
22:00 +5°C° 0 mm 2 m/s 752 mmHg 58%
23:00 +4°C° 0 mm 2 m/s 752 mmHg 61%

28 Julho, Quarta-feira

Tempo Temperatura Precipitação Vento Pressão Humidade
00:00 +5°C° 0 mm 1 m/s 752 mmHg 62%
01:00 +5°C° 0 mm 1 m/s 752 mmHg 63%
02:00 +4°C° 0 mm 1 m/s 752 mmHg 64%
03:00 +4°C° 0 mm 1 m/s 752 mmHg 66%
04:00 +3°C° 0 mm 1 m/s 752 mmHg 68%
05:00 +3°C° 0 mm 1 m/s 752 mmHg 70%
06:00 +3°C° 0 mm 2 m/s 752 mmHg 66%
07:00 +4°C° 0 mm 2 m/s 753 mmHg 62%
08:00 +4°C° 0 mm 3 m/s 753 mmHg 58%
09:00 +7°C° 0 mm 3 m/s 753 mmHg 53%
10:00 +8°C° 0 mm 4 m/s 753 mmHg 48%
11:00 +10°C° 0 mm 4 m/s 753 mmHg 43%
12:00 +10°C° 0 mm 5 m/s 753 mmHg 44%
13:00 +10°C° 0 mm 5 m/s 753 mmHg 44%
14:00 +12°C° 0 mm 5 m/s 752 mmHg 45%
15:00 +10°C° 0 mm 5 m/s 753 mmHg 49%
16:00 +10°C° 0 mm 4 m/s 753 mmHg 52%
17:00 +8°C° 0 mm 4 m/s 753 mmHg 56%
18:00 +8°C° 0 mm 4 m/s 754 mmHg 56%
19:00 +8°C° 0 mm 4 m/s 754 mmHg 56%
20:00 +7°C° 0 mm 4 m/s 755 mmHg 56%
21:00 +7°C° 0 mm 3 m/s 755 mmHg 64%
22:00 +4°C° 0 mm 3 m/s 756 mmHg 72%
23:00 +4°C° 0 mm 2 m/s 756 mmHg 80%

29 Julho, Quinta-feira

Tempo Temperatura Precipitação Vento Pressão Humidade
00:00 +3°C° 0 mm 2 m/s 756 mmHg 84%
01:00 +3°C° 0 mm 1 m/s 756 mmHg 87%
02:00 +2°C° 0 mm 1 m/s 756 mmHg 91%
03:00 +2°C° 0 mm 1 m/s 756 mmHg 91%
04:00 +2°C° 0 mm 1 m/s 756 mmHg 91%
05:00 +1°C° 0 mm 1 m/s 756 mmHg 92%
06:00 +3°C° 0 mm 1 m/s 756 mmHg 85%
07:00 +4°C° 0 mm 1 m/s 757 mmHg 78%
08:00 +5°C° 0 mm 1 m/s 757 mmHg 71%
09:00 +7°C° 0 mm 1 m/s 757 mmHg 62%
10:00 +8°C° 0 mm 2 m/s 757 mmHg 53%
11:00 +10°C° 0 mm 2 m/s 757 mmHg 44%
12:00 +12°C° 0 mm 2 m/s 757 mmHg 42%
13:00 +12°C° 0 mm 2 m/s 756 mmHg 40%
14:00 +13°C° 0 mm 2 m/s 756 mmHg 38%
15:00 +10°C° 0 mm 2 m/s 756 mmHg 44%
16:00 +9°C° 0 mm 2 m/s 755 mmHg 50%
17:00 +7°C° 0 mm 2 m/s 755 mmHg 56%
18:00 +6°C° 0 mm 2 m/s 756 mmHg 61%
19:00 +5°C° 0 mm 2 m/s 756 mmHg 66%
20:00 +4°C° 0 mm 2 m/s 757 mmHg 71%
21:00 +4°C° 0 mm 2 m/s 756 mmHg 74%
22:00 +3°C° 0 mm 2 m/s 756 mmHg 77%
23:00 +3°C° 0 mm 2 m/s 756 mmHg 81%

30 Julho, Sexta-feira

Tempo Temperatura Precipitação Vento Pressão Humidade
00:00 +3°C° 0 mm 2 m/s 756 mmHg 82%
01:00 +2°C° 0 mm 2 m/s 756 mmHg 83%
02:00 +2°C° 0 mm 2 m/s 755 mmHg 85%
03:00 +2°C° 0 mm 2 m/s 755 mmHg 86%
04:00 +2°C° 0 mm 2 m/s 755 mmHg 87%
05:00 +2°C° 0 mm 2 m/s 755 mmHg 88%
06:00 +3°C° 0 mm 2 m/s 755 mmHg 80%
07:00 +4°C° 0 mm 3 m/s 756 mmHg 72%
08:00 +5°C° 0 mm 3 m/s 756 mmHg 64%
09:00 +9°C° 0 mm 3 m/s 756 mmHg 56%
10:00 +11°C° 0 mm 3 m/s 756 mmHg 48%
11:00 +14°C° 0 mm 3 m/s 755 mmHg 41%
12:00 +16°C° 0 mm 3 m/s 755 mmHg 39%
13:00 +17°C° 0 mm 3 m/s 754 mmHg 37%
14:00 +17°C° 0 mm 3 m/s 753 mmHg 35%
15:00 +16°C° 0 mm 2 m/s 753 mmHg 42%
16:00 +14°C° 0 mm 2 m/s 753 mmHg 49%
17:00 +12°C° 0 mm 2 m/s 753 mmHg 56%
18:00 +10°C° 0 mm 2 m/s 753 mmHg 59%
19:00 +9°C° 0 mm 2 m/s 753 mmHg 63%
20:00 +8°C° 0 mm 2 m/s 753 mmHg 66%
21:00 +8°C° 0 mm 2 m/s 753 mmHg 68%
22:00 +7°C° 0 mm 2 m/s 753 mmHg 70%
23:00 +7°C° 0 mm 2 m/s 753 mmHg 72%
Mostrar mais

Necessitamos do seu Consentimento

A Meteoprog e os seus Fornecedores de Serviços podem armazenar e aceder a dados pessoais como cookies, identificadores do dispositivo ou outras tecnologias semelhantes existentes no seu dispositivo e processar estes dados para personalizar conteúdos e anúncios, assim como funcionalidades nas redes sociais e análise de tráfego.

  • Armazenar e/ou aceder a informações no seu dispositivo

    Os cookies, identificadores do dispositivo ou outras informações podem ser armazenados ou acedidos no seu dispositivo, para os fins acima indicados.

  • Anúncios e conteúdos personalizados, medição de anúncios e conteúdos, dados sobre o público-alvo e desenvolvimento de produtos

    Os anúncios e os conteúdos podem ser personalizados com base num perfil. Podem ser adicionados dados adicionais para uma maior personalização dos anúncios e dos conteúdos. A eficácia dos anúncios e dos conteúdos pode ser medida. Podem ser obtidas informações sobre o público que visualizou os anúncios e os conteúdos. Estes dados podem ser usados para desenvolver ou melhorar sistemas, softwares ou a experiência do utilizador.

Ao clicar em "Eu concordo”, permitirá o uso de cookies, identificadores do dispositivo e web beacons mencionados ou outras tecnologias semelhantes. As configurações do navegador do seu dispositivo podem ser alteradas.

Para certos fins, podem ser invocados interesses legítimos ao invés de consentimento. Pode ler mais informação sobre este assunto na nossa Política de Privacidade e Cookies.